DLH05E LPPR-EDDF

Flight info

Callsign DLH05E
Flight time 2h 18m
Altitude 24000
Route TURON P600 ASDEB/N0455F340 DCT LOTEE DCT AZFIC UN741 ERIGA/N0453F360 UN741 MOKOR UN873 OBATO UM163 TSU UN858 OQQAL DCT RANUX/N0448F350 DCT VALEK DCT LIPNI DCT LIMGO Z111 TUTOV/N0403F230 Z111 RAMOB IMCOM1D
Aircraft A321/M-SDE2E3FGIJ1LORWXYZ/HB1

Departure

Time 2026-04-13 16:08
Airport Francisco de Sá Carneiro Airport (LPPR)

Arrival

Time 2026-04-13 18:26
Airport Frankfurt Main Airport (EDDF)
Time Latitude Longitude Altitude Speed Heading
2026-04-13 15:19 41.23640 -8.67241 245 ft 0 kts 78°
2026-04-13 15:56 41.23640 -8.67242 245 ft 1 kts 78°
2026-04-13 15:56 41.23636 -8.67263 245 ft 3 kts 69°
2026-04-13 15:56 41.23627 -8.67287 244 ft 3 kts 56°
2026-04-13 15:56 41.23615 -8.67308 243 ft 3 kts 44°
2026-04-13 15:57 41.23600 -8.67326 242 ft 3 kts 35°
2026-04-13 15:57 41.23583 -8.67340 241 ft 3 kts 31°
2026-04-13 15:57 41.23576 -8.67345 241 ft 0 kts 32°
2026-04-13 16:00 41.23595 -8.67334 241 ft 5 kts 20°
2026-04-13 16:01 41.23645 -8.67335 242 ft 9 kts 350°
2026-04-13 16:01 41.23709 -8.67375 241 ft 12 kts 313°
2026-04-13 16:01 41.23775 -8.67460 239 ft 14 kts 339°
2026-04-13 16:01 41.23877 -8.67489 239 ft 15 kts 349°
2026-04-13 16:02 41.23988 -8.67519 238 ft 17 kts 349°
2026-04-13 16:02 41.24107 -8.67550 238 ft 18 kts 348°
2026-04-13 16:02 41.24219 -8.67585 237 ft 15 kts 336°
2026-04-13 16:02 41.24294 -8.67685 232 ft 16 kts 316°
2026-04-13 16:03 41.24418 -8.67737 224 ft 21 kts 348°
2026-04-13 16:03 41.24580 -8.67779 223 ft 26 kts 349°
2026-04-13 16:03 41.24751 -8.67826 209 ft 23 kts 346°
2026-04-13 16:03 41.24906 -8.67919 205 ft 25 kts 346°
2026-04-13 16:04 41.25092 -8.67969 195 ft 29 kts 349°
2026-04-13 16:04 41.25298 -8.68022 181 ft 29 kts 349°
2026-04-13 16:04 41.25441 -8.68062 176 ft 17 kts 350°
2026-04-13 16:04 41.25570 -8.68094 172 ft 20 kts 349°
2026-04-13 16:05 41.25665 -8.68136 170 ft 12 kts 317°
2026-04-13 16:05 41.25677 -8.68204 170 ft 2 kts 261°
2026-04-13 16:05 41.25676 -8.68211 170 ft 1 kts 260°
2026-04-13 16:05 41.25671 -8.68247 170 ft 7 kts 260°
2026-04-13 16:06 41.25662 -8.68319 171 ft 6 kts 260°
2026-04-13 16:06 41.25636 -8.68340 172 ft 5 kts 185°
2026-04-13 16:06 41.25615 -8.68337 172 ft 0 kts 170°
2026-04-13 16:07 41.25587 -8.68330 173 ft 20 kts 169°
2026-04-13 16:07 41.25195 -8.68228 196 ft 92 kts 169°
2026-04-13 16:08 41.24361 -8.68010 212 ft 150 kts 169°
2026-04-13 16:08 41.23275 -8.67739 741 ft 158 kts 171°
2026-04-13 16:08 41.22189 -8.67454 1456 ft 163 kts 172°
2026-04-13 16:08 41.20998 -8.67142 1770 ft 185 kts 172°
2026-04-13 16:09 41.19658 -8.66796 2031 ft 207 kts 171°
2026-04-13 16:09 41.18158 -8.66405 2328 ft 233 kts 171°
2026-04-13 16:09 41.17045 -8.66113 2606 ft 249 kts 171°
2026-04-13 16:09 41.14744 -8.65504 3629 ft 258 kts 171°
2026-04-13 16:10 41.12967 -8.65030 4448 ft 264 kts 172°
2026-04-13 16:10 41.11143 -8.64538 5205 ft 271 kts 169°
2026-04-13 16:10 41.09391 -8.63497 5839 ft 284 kts 144°
2026-04-13 16:10 41.08081 -8.61518 6455 ft 291 kts 116°
2026-04-13 16:11 41.07545 -8.58945 7052 ft 293 kts 88°
2026-04-13 16:11 41.07909 -8.56329 7655 ft 289 kts 61°
2026-04-13 16:11 41.09059 -8.54205 8293 ft 282 kts 36°
2026-04-13 16:11 41.10728 -8.52939 8952 ft 275 kts 11°
2026-04-13 16:12 41.12598 -8.52669 9670 ft 271 kts 354°
2026-04-13 16:12 41.14490 -8.52748 10423 ft 275 kts 354°
2026-04-13 16:12 41.16483 -8.52836 10716 ft 298 kts 354°
2026-04-13 16:12 41.18633 -8.52933 10891 ft 321 kts 355°
2026-04-13 16:13 41.20944 -8.53033 11016 ft 343 kts 355°
2026-04-13 16:13 41.23394 -8.53130 11136 ft 360 kts 355°
2026-04-13 16:13 41.25951 -8.53224 11268 ft 375 kts 355°
2026-04-13 16:13 41.28599 -8.53320 11457 ft 386 kts 355°
2026-04-13 16:14 41.30384 -8.53385 11713 ft 389 kts 356°
2026-04-13 16:14 41.33104 -8.53485 12144 ft 392 kts 356°
2026-04-13 16:14 41.35843 -8.53588 12590 ft 395 kts 356°
2026-04-13 16:14 41.38601 -8.53693 13061 ft 398 kts 356°
2026-04-13 16:15 41.41378 -8.53802 13532 ft 401 kts 356°
2026-04-13 16:15 41.44176 -8.53911 13965 ft 404 kts 356°
2026-04-13 16:15 41.46999 -8.54021 14367 ft 407 kts 356°
2026-04-13 16:15 41.49837 -8.54128 14751 ft 409 kts 356°
2026-04-13 16:16 41.52691 -8.54234 15165 ft 411 kts 356°
2026-04-13 16:16 41.55557 -8.54342 15595 ft 413 kts 356°
2026-04-13 16:16 41.58438 -8.54451 16015 ft 415 kts 356°
2026-04-13 16:16 41.61329 -8.54564 16424 ft 417 kts 356°
2026-04-13 16:17 41.64233 -8.54677 16835 ft 419 kts 356°
2026-04-13 16:17 41.67150 -8.54787 17240 ft 420 kts 356°
2026-04-13 16:17 41.70081 -8.54903 17626 ft 422 kts 355°
2026-04-13 16:17 41.73025 -8.55024 18008 ft 424 kts 355°
2026-04-13 16:18 41.75984 -8.55145 18382 ft 426 kts 356°
2026-04-13 16:18 41.78952 -8.55260 18727 ft 428 kts 355°
2026-04-13 16:18 41.81931 -8.55372 19055 ft 429 kts 355°
2026-04-13 16:18 41.84917 -8.55483 19391 ft 430 kts 355°
2026-04-13 16:19 41.87911 -8.55596 19743 ft 431 kts 356°
2026-04-13 16:19 41.90913 -8.55286 20086 ft 438 kts
2026-04-13 16:19 41.93756 -8.53887 20439 ft 447 kts 24°
2026-04-13 16:19 41.96333 -8.51483 20789 ft 454 kts 33°
2026-04-13 16:20 41.98864 -8.48938 21122 ft 455 kts 31°
2026-04-13 16:20 42.01430 -8.46436 21451 ft 456 kts 31°
2026-04-13 16:20 42.04017 -8.43958 21763 ft 457 kts 30°
2026-04-13 16:20 42.06619 -8.41482 22057 ft 459 kts 30°
2026-04-13 16:21 42.09225 -8.38995 22334 ft 460 kts 30°
2026-04-13 16:21 42.11835 -8.36484 22609 ft 461 kts 31°
2026-04-13 16:21 42.14438 -8.33958 22874 ft 462 kts 31°
2026-04-13 16:21 42.17047 -8.31413 23052 ft 464 kts 31°
2026-04-13 16:22 42.19662 -8.28851 23245 ft 465 kts 31°
2026-04-13 16:22 42.22285 -8.26275 23426 ft 467 kts 31°
2026-04-13 16:22 42.27548 -8.21102 23769 ft 469 kts 31°
2026-04-13 16:23 42.30188 -8.18507 23931 ft 469 kts 31°
2026-04-13 16:23 42.32831 -8.15913 24084 ft 470 kts 31°
2026-04-13 16:23 42.35478 -8.13326 24233 ft 469 kts 31°
2026-04-13 16:23 42.38138 -8.10776 24400 ft 469 kts 30°
2026-04-13 16:24 42.40806 -8.08250 24629 ft 467 kts 30°
2026-04-13 16:24 42.43468 -8.05736 24883 ft 465 kts 30°
2026-04-13 16:24 42.46112 -8.03236 25151 ft 463 kts 29°
2026-04-13 16:24 42.48743 -8.00742 25411 ft 461 kts 29°
2026-04-13 16:25 42.51358 -7.98251 25671 ft 459 kts 29°
2026-04-13 16:25 42.53961 -7.95757 25928 ft 457 kts 29°
2026-04-13 16:25 42.56546 -7.93272 26167 ft 455 kts 29°
2026-04-13 16:25 42.59123 -7.90795 26393 ft 453 kts 29°
2026-04-13 16:26 42.61687 -7.88330 26636 ft 451 kts 28°
2026-04-13 16:26 42.64242 -7.85869 26876 ft 449 kts 28°
2026-04-13 16:26 42.66784 -7.83426 27174 ft 447 kts 28°
2026-04-13 16:26 42.69318 -7.80992 27474 ft 445 kts 28°
2026-04-13 16:27 42.71835 -7.78568 27763 ft 442 kts 28°
2026-04-13 16:27 42.74337 -7.76153 28037 ft 440 kts 27°
2026-04-13 16:27 42.76828 -7.73745 28326 ft 438 kts 27°
2026-04-13 16:27 42.79308 -7.71349 28560 ft 437 kts 27°
2026-04-13 16:28 42.81784 -7.68957 28816 ft 435 kts 27°
2026-04-13 16:28 42.84249 -7.66570 29097 ft 434 kts 27°
2026-04-13 16:28 42.86699 -7.64193 29372 ft 431 kts 27°
2026-04-13 16:28 42.89135 -7.61823 29671 ft 429 kts 26°
2026-04-13 16:29 42.91528 -7.59491 29984 ft 428 kts 27°
2026-04-13 16:29 42.93955 -7.57134 30119 ft 429 kts 27°
2026-04-13 16:29 42.96397 -7.54767 30132 ft 432 kts 27°
2026-04-13 16:30 43.01300 -7.49995 30132 ft 433 kts 27°
2026-04-13 16:30 43.06203 -7.45201 30130 ft 433 kts 27°
2026-04-13 16:31 43.11104 -7.40404 30131 ft 433 kts 27°
2026-04-13 16:31 43.16003 -7.35598 30129 ft 433 kts 27°
2026-04-13 16:32 43.20904 -7.30780 30141 ft 434 kts 27°
2026-04-13 16:32 43.25807 -7.25951 30141 ft 434 kts 27°
2026-04-13 16:33 43.30677 -7.21144 30148 ft 435 kts 28°
2026-04-13 16:33 43.35596 -7.16280 30097 ft 437 kts 28°
2026-04-13 16:34 43.40545 -7.11374 30088 ft 440 kts 28°
2026-04-13 16:34 43.45519 -7.06441 30092 ft 442 kts 28°
2026-04-13 16:35 43.50513 -7.01474 30088 ft 444 kts 28°
2026-04-13 16:35 43.55520 -6.96474 30092 ft 445 kts 28°
2026-04-13 16:36 43.60534 -6.91467 30099 ft 445 kts 28°
2026-04-13 16:36 43.65552 -6.86439 30109 ft 446 kts 29°
2026-04-13 16:37 43.70577 -6.81393 30113 ft 447 kts 30°
2026-04-13 16:37 43.75623 -6.76321 30082 ft 449 kts 30°
2026-04-13 16:38 43.80688 -6.71223 30079 ft 451 kts 30°
2026-04-13 16:38 43.85724 -6.66137 30094 ft 452 kts 30°
2026-04-13 16:39 43.90804 -6.60995 30093 ft 452 kts 30°
2026-04-13 16:39 43.95887 -6.55843 30097 ft 453 kts 30°
2026-04-13 16:40 44.00965 -6.50680 30096 ft 453 kts 30°
2026-04-13 16:40 44.06044 -6.45500 30128 ft 453 kts 30°
2026-04-13 16:41 44.11132 -6.40306 30090 ft 454 kts 31°
2026-04-13 16:41 44.16234 -6.35094 30077 ft 455 kts 31°
2026-04-13 16:42 44.21338 -6.29858 30079 ft 456 kts 31°
2026-04-13 16:42 44.26445 -6.24603 30087 ft 456 kts 31°
2026-04-13 16:43 44.31527 -6.19381 30085 ft 457 kts 31°
2026-04-13 16:43 44.36639 -6.14105 30080 ft 457 kts 31°
2026-04-13 16:44 44.41753 -6.08811 30102 ft 457 kts 31°
2026-04-13 16:44 44.46870 -6.03500 30102 ft 458 kts 31°
2026-04-13 16:45 44.51992 -5.98180 30089 ft 459 kts 31°
2026-04-13 16:45 44.57121 -5.92842 30088 ft 459 kts 31°
2026-04-13 16:46 44.62251 -5.87489 30082 ft 460 kts 31°
2026-04-13 16:46 44.67246 -5.81838 30084 ft 466 kts 39°
2026-04-13 16:47 44.71884 -5.75484 30085 ft 466 kts 38°
2026-04-13 16:47 44.76533 -5.69125 30104 ft 466 kts 39°
2026-04-13 16:48 44.81150 -5.62795 30099 ft 467 kts 39°
2026-04-13 16:48 44.85800 -5.56400 30100 ft 467 kts 39°
2026-04-13 16:49 44.90439 -5.49988 30090 ft 467 kts 38°
2026-04-13 16:49 44.95079 -5.43561 30097 ft 467 kts 38°
2026-04-13 16:50 44.99715 -5.37128 30093 ft 467 kts 39°
2026-04-13 16:50 45.04351 -5.30688 30106 ft 467 kts 39°
2026-04-13 16:51 45.08977 -5.24236 30105 ft 467 kts 39°
2026-04-13 16:51 45.13599 -5.17767 30100 ft 467 kts 39°
2026-04-13 16:52 45.18229 -5.11291 30094 ft 468 kts 39°
2026-04-13 16:52 45.22861 -5.04806 30098 ft 468 kts 39°
2026-04-13 16:53 45.27489 -4.98293 30105 ft 469 kts 39°
2026-04-13 16:53 45.32117 -4.91762 30114 ft 469 kts 39°
2026-04-13 16:54 45.36715 -4.85252 30099 ft 470 kts 39°
2026-04-13 16:54 45.41346 -4.78686 30097 ft 470 kts 39°
2026-04-13 16:55 45.45980 -4.72098 30094 ft 471 kts 39°
2026-04-13 16:55 45.50621 -4.65500 30122 ft 471 kts 40°
2026-04-13 16:56 45.55259 -4.58871 30109 ft 473 kts 40°
2026-04-13 16:56 45.59901 -4.52219 30104 ft 473 kts 40°
2026-04-13 16:57 45.64548 -4.45554 30102 ft 473 kts 40°
2026-04-13 16:57 45.69194 -4.38875 30113 ft 474 kts 40°
2026-04-13 16:58 45.73838 -4.32181 30103 ft 474 kts 40°
2026-04-13 16:58 45.78470 -4.25475 30097 ft 474 kts 40°
2026-04-13 16:59 45.83102 -4.18762 30095 ft 473 kts 40°
2026-04-13 16:59 45.87733 -4.12046 30090 ft 473 kts 40°
2026-04-13 17:00 45.92358 -4.05317 30098 ft 473 kts 40°
2026-04-13 17:00 45.96948 -3.98613 30092 ft 474 kts 40°
2026-04-13 17:01 46.01574 -3.91841 30106 ft 475 kts 40°
2026-04-13 17:01 46.06193 -3.85052 30093 ft 475 kts 40°
2026-04-13 17:02 46.10813 -3.78245 30090 ft 475 kts 41°
2026-04-13 17:02 46.15428 -3.71429 30083 ft 475 kts 40°
2026-04-13 17:03 46.20046 -3.64611 30087 ft 475 kts 40°
2026-04-13 17:03 46.24663 -3.57763 30103 ft 476 kts 41°
2026-04-13 17:04 46.29274 -3.50899 30092 ft 476 kts 41°
2026-04-13 17:04 46.33887 -3.44004 30104 ft 477 kts 41°
2026-04-13 17:05 46.38505 -3.37101 30097 ft 477 kts 41°
2026-04-13 17:05 46.43128 -3.30198 30094 ft 477 kts 41°
2026-04-13 17:06 46.47748 -3.23275 30096 ft 478 kts 41°
2026-04-13 17:06 46.52356 -3.16325 30100 ft 478 kts 41°
2026-04-13 17:07 46.56842 -3.09192 30102 ft 482 kts 49°
2026-04-13 17:07 46.60372 -3.00831 30098 ft 486 kts 56°
2026-04-13 17:08 46.63206 -2.93768 30087 ft 486 kts 55°
2026-04-13 17:08 46.66616 -2.85264 30091 ft 486 kts 56°
2026-04-13 17:09 46.70020 -2.76751 30100 ft 486 kts 56°
2026-04-13 17:09 46.73414 -2.68224 30089 ft 486 kts 56°
2026-04-13 17:10 46.76797 -2.59678 30089 ft 487 kts 56°
2026-04-13 17:10 46.80180 -2.51125 30085 ft 487 kts 56°
2026-04-13 17:11 46.83561 -2.42569 30094 ft 487 kts 56°
2026-04-13 17:11 46.86945 -2.33998 30082 ft 487 kts 55°
2026-04-13 17:12 46.90461 -2.25551 30084 ft 486 kts 53°
2026-04-13 17:12 46.94055 -2.17189 30082 ft 486 kts 53°
2026-04-13 17:13 46.97625 -2.08788 30082 ft 486 kts 54°
2026-04-13 17:13 47.01600 -2.00896 30094 ft 477 kts 40°
2026-04-13 17:14 47.06639 -1.94849 30086 ft 470 kts 32°
2026-04-13 17:14 47.11858 -1.89087 30083 ft 469 kts 32°
2026-04-13 17:15 47.17064 -1.83309 30094 ft 469 kts 32°
2026-04-13 17:15 47.22281 -1.77555 30086 ft 469 kts 32°
2026-04-13 17:16 47.27498 -1.71808 30082 ft 468 kts 32°
2026-04-13 17:16 47.32701 -1.66038 30079 ft 469 kts 33°
2026-04-13 17:17 47.37249 -1.59033 30087 ft 478 kts 47°
2026-04-13 17:17 47.41332 -1.51302 30086 ft 477 kts 47°
2026-04-13 17:18 47.45415 -1.43597 30071 ft 476 kts 47°
2026-04-13 17:18 47.49494 -1.35883 30067 ft 476 kts 47°
2026-04-13 17:19 47.53567 -1.28159 30065 ft 476 kts 47°
2026-04-13 17:19 47.57600 -1.20472 30073 ft 476 kts 47°
2026-04-13 17:20 47.61648 -1.12716 30072 ft 475 kts 47°
2026-04-13 17:20 47.65685 -1.04964 30062 ft 475 kts 47°
2026-04-13 17:21 47.69723 -0.97203 30055 ft 475 kts 47°
2026-04-13 17:21 47.73748 -0.89437 30053 ft 474 kts 47°
2026-04-13 17:22 47.77766 -0.81667 30068 ft 474 kts 46°
2026-04-13 17:22 47.81781 -0.73888 30070 ft 474 kts 46°
2026-04-13 17:23 47.85791 -0.66096 30048 ft 474 kts 46°
2026-04-13 17:23 47.89798 -0.58276 30041 ft 475 kts 46°
2026-04-13 17:24 47.93777 -0.50483 30042 ft 476 kts 47°
2026-04-13 17:24 47.97781 -0.42625 30052 ft 476 kts 47°
2026-04-13 17:25 48.01777 -0.34740 30066 ft 476 kts 47°
2026-04-13 17:25 48.05765 -0.26830 30058 ft 478 kts 49°
2026-04-13 17:26 48.08950 -0.17991 30048 ft 487 kts 59°
2026-04-13 17:26 48.11826 -0.08812 30042 ft 487 kts 59°
2026-04-13 17:27 48.16120 0.04986 30062 ft 487 kts 59°
2026-04-13 17:27 48.18983 0.14186 30053 ft 487 kts 59°
2026-04-13 17:28 48.21844 0.23392 30052 ft 487 kts 59°
2026-04-13 17:28 48.24676 0.32538 30058 ft 487 kts 59°
2026-04-13 17:29 48.27521 0.41771 30052 ft 488 kts 59°
2026-04-13 17:29 48.30359 0.51028 30062 ft 488 kts 59°
2026-04-13 17:30 48.33181 0.60286 30062 ft 488 kts 60°
2026-04-13 17:30 48.36007 0.69564 30058 ft 488 kts 59°
2026-04-13 17:31 48.38826 0.78844 30055 ft 488 kts 60°
2026-04-13 17:31 48.41636 0.88132 30068 ft 488 kts 60°
2026-04-13 17:32 48.44444 0.97435 30075 ft 488 kts 60°
2026-04-13 17:32 48.47231 1.06748 30061 ft 488 kts 60°
2026-04-13 17:33 48.49990 1.16009 30054 ft 488 kts 60°
2026-04-13 17:33 48.52775 1.25336 30055 ft 488 kts 60°
2026-04-13 17:34 48.56932 1.39362 30065 ft 488 kts 62°
2026-04-13 17:35 48.59698 1.48741 30063 ft 487 kts 62°
2026-04-13 17:35 48.62440 1.58076 30059 ft 487 kts 62°
2026-04-13 17:36 48.65154 1.67467 30069 ft 488 kts 63°
2026-04-13 17:36 48.67571 1.77094 30068 ft 490 kts 68°
2026-04-13 17:37 48.69811 1.86840 30059 ft 490 kts 68°
2026-04-13 17:37 48.72084 1.96561 30057 ft 490 kts 68°
2026-04-13 17:38 48.74416 2.06250 30056 ft 489 kts 67°
2026-04-13 17:38 48.76615 2.16013 30055 ft 491 kts 71°
2026-04-13 17:39 48.78390 2.25941 30050 ft 492 kts 75°
2026-04-13 17:39 48.80050 2.36001 30047 ft 492 kts 75°
2026-04-13 17:40 48.81786 2.46057 30049 ft 493 kts 74°
2026-04-13 17:40 48.83585 2.56091 30051 ft 493 kts 74°
2026-04-13 17:41 48.85385 2.66129 30031 ft 493 kts 77°
2026-04-13 17:41 48.87160 2.76226 30020 ft 496 kts 78°
2026-04-13 17:42 48.88928 2.86364 30014 ft 497 kts 78°
2026-04-13 17:42 48.90697 2.96538 30024 ft 498 kts 78°
2026-04-13 17:43 48.92460 3.06733 30031 ft 499 kts 78°
2026-04-13 17:43 48.94207 3.16944 30009 ft 499 kts 81°
2026-04-13 17:44 48.95947 3.27180 30013 ft 500 kts 81°
2026-04-13 17:44 48.97683 3.37432 30025 ft 500 kts 81°
2026-04-13 17:45 48.99399 3.47627 30032 ft 501 kts 81°
2026-04-13 17:45 49.01123 3.57893 30003 ft 500 kts 81°
2026-04-13 17:46 49.02835 3.68160 30013 ft 500 kts 81°
2026-04-13 17:46 49.04533 3.78430 30019 ft 500 kts 81°
2026-04-13 17:47 49.06225 3.88702 30020 ft 500 kts 81°
2026-04-13 17:47 49.07908 3.98984 30024 ft 500 kts 81°
2026-04-13 17:48 49.09583 4.09283 30024 ft 500 kts 81°
2026-04-13 17:48 49.11247 4.19590 30025 ft 500 kts 81°
2026-04-13 17:49 49.12897 4.29883 30025 ft 499 kts 82°
2026-04-13 17:49 49.14951 4.40050 30025 ft 506 kts 72°
2026-04-13 17:50 49.17655 4.49963 30001 ft 505 kts 71°
2026-04-13 17:50 49.20341 4.59875 30023 ft 504 kts 71°
2026-04-13 17:51 49.23002 4.69727 30035 ft 504 kts 72°
2026-04-13 17:51 49.25659 4.79647 30022 ft 504 kts 72°
2026-04-13 17:52 49.28307 4.89580 29991 ft 504 kts 72°
2026-04-13 17:52 49.30933 4.99501 30030 ft 502 kts 72°
2026-04-13 17:53 49.33117 5.07725 30032 ft 501 kts 72°
2026-04-13 17:53 49.36180 5.19262 30027 ft 499 kts 72°
2026-04-13 17:54 49.38779 5.29148 30022 ft 499 kts 72°
2026-04-13 17:54 49.41365 5.39024 29997 ft 498 kts 72°
2026-04-13 17:55 49.43931 5.48903 30011 ft 498 kts 72°
2026-04-13 17:55 49.46489 5.58791 30013 ft 498 kts 72°
2026-04-13 17:56 49.49021 5.68607 30010 ft 497 kts 72°
2026-04-13 17:56 49.51560 5.78506 30002 ft 497 kts 73°
2026-04-13 17:57 49.54010 5.88439 29991 ft 496 kts 73°
2026-04-13 17:57 49.56432 5.98375 30000 ft 495 kts 73°
2026-04-13 17:58 49.58870 6.08289 29998 ft 495 kts 73°
2026-04-13 17:58 49.61667 6.17982 30003 ft 497 kts 65°
2026-04-13 17:59 49.64985 6.27317 30006 ft 495 kts 65°
2026-04-13 17:59 49.68209 6.36675 29998 ft 492 kts 66°
2026-04-13 18:00 49.71321 6.46060 29997 ft 490 kts 66°
2026-04-13 18:00 49.74418 6.55430 29990 ft 489 kts 66°
2026-04-13 18:01 49.77538 6.64770 29982 ft 489 kts 66°
2026-04-13 18:01 49.80654 6.74115 29697 ft 490 kts 66°
2026-04-13 18:01 49.82204 6.78798 29239 ft 488 kts 66°
2026-04-13 18:02 49.83750 6.83480 28929 ft 488 kts 66°
2026-04-13 18:02 49.85290 6.88150 28646 ft 483 kts 66°
2026-04-13 18:02 49.86798 6.92729 28039 ft 476 kts 66°
2026-04-13 18:02 49.88310 6.97339 26746 ft 483 kts 66°
2026-04-13 18:03 49.89803 7.01893 26220 ft 474 kts 66°
2026-04-13 18:03 49.90804 7.04947 25858 ft 468 kts 66°
2026-04-13 18:03 49.92743 7.10872 25046 ft 461 kts 65°
2026-04-13 18:03 49.94188 7.15286 24382 ft 457 kts 66°
2026-04-13 18:04 49.95624 7.19676 23721 ft 454 kts 66°
2026-04-13 18:04 49.97043 7.24033 22977 ft 451 kts 66°
2026-04-13 18:04 49.98448 7.28361 22239 ft 446 kts 66°
2026-04-13 18:04 49.99826 7.32617 21269 ft 437 kts 65°
2026-04-13 18:05 50.00726 7.35403 20575 ft 434 kts 65°
2026-04-13 18:05 50.02068 7.39563 19611 ft 427 kts 66°
2026-04-13 18:05 50.03387 7.43655 18686 ft 419 kts 66°
2026-04-13 18:05 50.04681 7.47670 17750 ft 412 kts 66°
2026-04-13 18:06 50.05943 7.51637 16764 ft 405 kts 66°
2026-04-13 18:06 50.07167 7.55539 15803 ft 398 kts 66°
2026-04-13 18:06 50.08300 7.59430 14883 ft 390 kts 72°
2026-04-13 18:06 50.08946 7.63467 13980 ft 380 kts 84°
2026-04-13 18:07 50.09062 7.67547 13095 ft 377 kts 96°
2026-04-13 18:07 50.08675 7.71520 12679 ft 370 kts 106°
2026-04-13 18:07 50.07841 7.75285 12280 ft 366 kts 117°
2026-04-13 18:07 50.06581 7.78699 11896 ft 361 kts 127°
2026-04-13 18:08 50.05157 7.81899 11521 ft 358 kts 127°
2026-04-13 18:08 50.03738 7.85072 11138 ft 356 kts 127°
2026-04-13 18:08 50.02386 7.88226 10946 ft 356 kts 122°
2026-04-13 18:08 50.01391 7.91751 10962 ft 359 kts 110°
2026-04-13 18:09 50.00876 7.95564 10967 ft 363 kts 98°
2026-04-13 18:09 50.00880 7.99493 10965 ft 366 kts 86°
2026-04-13 18:09 50.01418 8.03375 10965 ft 370 kts 74°
2026-04-13 18:09 50.02329 8.07123 10965 ft 371 kts 71°
2026-04-13 18:10 50.03250 8.10868 10961 ft 371 kts 71°
2026-04-13 18:10 50.04164 8.14611 10962 ft 371 kts 71°
2026-04-13 18:10 50.05074 8.18365 10961 ft 371 kts 71°
2026-04-13 18:10 50.05982 8.22121 10961 ft 371 kts 72°
2026-04-13 18:11 50.06887 8.25877 10955 ft 370 kts 72°
2026-04-13 18:11 50.07788 8.29623 10961 ft 369 kts 72°
2026-04-13 18:11 50.08689 8.33374 10962 ft 369 kts 72°
2026-04-13 18:11 50.09589 8.37117 10962 ft 369 kts 72°
2026-04-13 18:12 50.10490 8.40863 10960 ft 369 kts 72°
2026-04-13 18:12 50.11387 8.44600 10975 ft 367 kts 72°
2026-04-13 18:12 50.12260 8.48228 10969 ft 346 kts 72°
2026-04-13 18:12 50.13082 8.51628 10958 ft 326 kts 72°
2026-04-13 18:13 50.13865 8.54880 10711 ft 316 kts 73°
2026-04-13 18:13 50.14610 8.57999 10469 ft 307 kts 73°
2026-04-13 18:13 50.15340 8.61081 10223 ft 299 kts 73°
2026-04-13 18:13 50.16054 8.64103 9889 ft 296 kts 73°
2026-04-13 18:14 50.16762 8.67100 9477 ft 294 kts 73°
2026-04-13 18:14 50.17467 8.70077 9070 ft 291 kts 73°
2026-04-13 18:14 50.18169 8.73035 8669 ft 290 kts 72°
2026-04-13 18:14 50.18867 8.75967 8273 ft 288 kts 72°
2026-04-13 18:15 50.19556 8.78880 7977 ft 283 kts 72°
2026-04-13 18:15 50.20219 8.81696 7887 ft 270 kts 72°
2026-04-13 18:15 50.20855 8.84394 7754 ft 260 kts 72°
2026-04-13 18:15 50.21466 8.86995 7557 ft 252 kts 72°
2026-04-13 18:16 50.22066 8.89554 7262 ft 250 kts 72°
2026-04-13 18:16 50.22661 8.92095 6938 ft 248 kts 72°
2026-04-13 18:16 50.23254 8.94617 6619 ft 247 kts 71°
2026-04-13 18:16 50.23844 8.97126 6312 ft 245 kts 71°
2026-04-13 18:17 50.24427 8.99622 5977 ft 244 kts 71°
2026-04-13 18:17 50.24997 9.02105 5646 ft 242 kts 74°
2026-04-13 18:17 50.25099 9.04664 5328 ft 235 kts 105°
2026-04-13 18:17 50.24336 9.06843 5023 ft 228 kts 139°
2026-04-13 18:18 50.22973 9.07935 4979 ft 228 kts 172°
2026-04-13 18:18 50.21413 9.07671 4981 ft 229 kts 204°
2026-04-13 18:18 50.20110 9.06240 4981 ft 231 kts 221°
2026-04-13 18:18 50.18937 9.04515 4982 ft 231 kts 224°
2026-04-13 18:19 50.17829 9.02822 4991 ft 216 kts 224°
2026-04-13 18:19 50.16771 9.01198 4984 ft 212 kts 224°
2026-04-13 18:19 50.15734 8.99573 4987 ft 210 kts 229°
2026-04-13 18:19 50.15065 8.97672 4997 ft 194 kts 247°
2026-04-13 18:20 50.14593 8.95715 4992 ft 192 kts 249°
2026-04-13 18:20 50.14137 8.93765 4990 ft 191 kts 249°
2026-04-13 18:20 50.13681 8.91819 4994 ft 191 kts 249°
2026-04-13 18:20 50.13224 8.89872 4996 ft 191 kts 248°
2026-04-13 18:21 50.12767 8.87926 4996 ft 191 kts 249°
2026-04-13 18:21 50.12309 8.85980 4984 ft 192 kts 249°
2026-04-13 18:21 50.11852 8.84037 4805 ft 191 kts 249°
2026-04-13 18:21 50.11395 8.82097 4556 ft 190 kts 249°
2026-04-13 18:22 50.10940 8.80165 4282 ft 190 kts 249°
2026-04-13 18:22 50.10482 8.78231 3999 ft 191 kts 249°
2026-04-13 18:22 50.10026 8.76297 3725 ft 190 kts 249°
2026-04-13 18:22 50.09577 8.74401 3471 ft 189 kts 250°
2026-04-13 18:23 50.09124 8.72484 3193 ft 188 kts 250°
2026-04-13 18:23 50.08673 8.70574 2924 ft 188 kts 251°
2026-04-13 18:23 50.08223 8.68671 2650 ft 187 kts 251°
2026-04-13 18:23 50.07775 8.66785 2380 ft 183 kts 251°
2026-04-13 18:24 50.07346 8.64980 2088 ft 172 kts 251°
2026-04-13 18:24 50.06949 8.63308 1856 ft 158 kts 251°
2026-04-13 18:24 50.06582 8.61765 1628 ft 146 kts 251°
2026-04-13 18:24 50.06234 8.60300 1409 ft 143 kts 251°
2026-04-13 18:25 50.05889 8.58852 1197 ft 142 kts 251°
2026-04-13 18:25 50.05548 8.57416 994 ft 142 kts 252°
2026-04-13 18:25 50.05206 8.55977 769 ft 141 kts 251°
2026-04-13 18:25 50.04869 8.54565 574 ft 138 kts 251°
2026-04-13 18:26 50.04536 8.53171 379 ft 137 kts 251°
2026-04-13 18:26 50.04241 8.51945 335 ft 88 kts 249°
2026-04-13 18:26 50.04105 8.51376 330 ft 36 kts 249°
2026-04-13 18:26 50.04010 8.51076 327 ft 30 kts 233°
2026-04-13 18:27 50.03875 8.50879 324 ft 16 kts 218°
2026-04-13 18:27 50.03825 8.50836 330 ft 6 kts 190°
2026-04-13 18:27 50.03790 8.50861 331 ft 8 kts 129°
2026-04-13 18:27 50.03791 8.50964 334 ft 12 kts 71°
2026-04-13 18:28 50.03829 8.51124 334 ft 18 kts 69°
2026-04-13 18:28 50.03870 8.51296 331 ft 17 kts 70°
2026-04-13 18:28 50.03897 8.51409 332 ft 0 kts 69°
2026-04-13 18:29 50.03899 8.51418 333 ft 4 kts 69°
2026-04-13 18:29 50.03921 8.51510 335 ft 14 kts 69°
2026-04-13 18:30 50.03965 8.51694 334 ft 20 kts 69°
2026-04-13 18:30 50.04017 8.51908 335 ft 22 kts 70°
2026-04-13 18:30 50.04077 8.52161 351 ft 27 kts 70°
2026-04-13 18:30 50.04144 8.52440 353 ft 27 kts 69°
2026-04-13 18:31 50.04210 8.52714 351 ft 27 kts 69°
2026-04-13 18:31 50.04275 8.52983 361 ft 27 kts 69°
2026-04-13 18:31 50.04337 8.53245 364 ft 24 kts 70°
2026-04-13 18:31 50.04388 8.53466 374 ft 20 kts 75°
2026-04-13 18:32 50.04406 8.53676 375 ft 20 kts 84°
2026-04-13 18:32 50.04418 8.53877 375 ft 18 kts 83°
2026-04-13 18:32 50.04431 8.54057 376 ft 16 kts 84°
2026-04-13 18:32 50.04442 8.54217 375 ft 14 kts 84°
2026-04-13 18:33 50.04451 8.54361 373 ft 13 kts 84°
2026-04-13 18:33 50.04445 8.54516 367 ft 16 kts 103°
2026-04-13 18:33 50.04395 8.54670 366 ft 17 kts 129°
2026-04-13 18:34 50.04221 8.54823 360 ft 12 kts 161°
2026-04-13 18:34 50.04174 8.54849 356 ft 2 kts 160°
2026-04-13 18:34 50.04168 8.54853 354 ft 0 kts 160°
2026-04-13 18:36 50.04159 8.54858 359 ft 4 kts 160°
2026-04-13 18:36 50.04135 8.54872 352 ft 3 kts 160°
2026-04-13 18:36 50.04118 8.54881 356 ft 2 kts 160°
2026-04-13 18:36 50.04110 8.54886 350 ft 2 kts 160°
2026-04-13 18:37 50.04100 8.54892 350 ft 3 kts 160°
2026-04-13 18:37 50.04089 8.54898 353 ft 0 kts 160°
2026-04-13 18:37 50.04068 8.54910 357 ft 7 kts 159°
2026-04-13 18:38 50.04012 8.54944 358 ft 9 kts 158°
2026-04-13 18:38 50.03941 8.54986 355 ft 13 kts 159°
2026-04-13 18:38 50.03868 8.55033 357 ft 10 kts 147°
2026-04-13 18:38 50.03855 8.55140 358 ft 13 kts 73°
2026-04-13 18:39 50.03894 8.55303 349 ft 18 kts 69°
2026-04-13 18:39 50.03935 8.55477 355 ft 16 kts 69°
2026-04-13 18:39 50.03972 8.55630 356 ft 14 kts 70°
2026-04-13 18:39 50.04003 8.55761 354 ft 11 kts 69°
2026-04-13 18:40 50.04028 8.55867 358 ft 10 kts 70°
2026-04-13 18:40 50.04053 8.55972 356 ft 11 kts 69°
2026-04-13 18:40 50.04085 8.56103 357 ft 13 kts 69°
2026-04-13 18:40 50.04113 8.56223 357 ft 11 kts 70°
2026-04-13 18:41 50.04162 8.56281 353 ft 9 kts 357°
2026-04-13 18:41 50.04226 8.56249 361 ft 11 kts 340°
2026-04-13 18:41 50.04289 8.56176 362 ft 12 kts 280°
2026-04-13 18:41 50.04335 8.56062 356 ft 14 kts 336°
2026-04-13 18:42 50.04422 8.56041 356 ft 11 kts 25°
2026-04-13 18:42 50.04455 8.56130 357 ft 8 kts 69°
2026-04-13 18:42 50.04480 8.56232 358 ft 12 kts 69°
2026-04-13 18:42 50.04506 8.56342 362 ft 9 kts 70°
2026-04-13 18:43 50.04531 8.56419 360 ft 8 kts 46°
2026-04-13 18:43 50.04576 8.56459 361 ft 7 kts 25°
2026-04-13 18:43 50.04624 8.56493 360 ft 8 kts 25°
2026-04-13 18:43 50.04663 8.56537 359 ft 5 kts 66°
2026-04-13 18:44 50.04663 8.56556 357 ft 3 kts 89°
2026-04-13 18:44 50.04651 8.56615 360 ft 6 kts 113°
2026-04-13 18:44 50.04639 8.56658 358 ft 2 kts 114°
2026-04-13 18:44 50.04637 8.56664 359 ft 0 kts 114°